CZ-6A DEB, 54894

Orbit data source: Space-Track

CZ-6A DEB, 54894 is space debris in SSO originally from a launch on Fri, 11 Nov 2022 UTC launched from the Taiyaun Space Center, China (TSC). Debris objects in space refer to the collection of defunct objects orbiting the Earth. Examples of debris include non-operational satellites, rocket bodies, and fragments generated from explosions, collisions, or faulty payload assembly.

Loading next visibility...
Identifier
54894, 2022-151QF
Orbit
SSO
Country
Flag of CNCN / PRC
Related business
Manufacturer
SAST
Mission
Spacecraft
Bus & Motor
Unknown
Mass
Unknown
Launch date (UTC)
2022-11-11 (3 years ago)
Launch vehicle
Unknown
Launch site
Taiyaun Space Center, China (TSC)
Object type
Payload
Rocket body
Debris
Shape & HBR
Unknown shape, 0.1 m
Radar Cross Section
Small (<0.1 m²)

Expand to show TLE details & history
Last TLE update: 17 hours ago

TLE from 17 hours ago
0 CZ-6A DEB
1 54894U 22151QF  25354.90848103  .00012900  00000-0  16081-2 0  9993
2 54894  98.6288  57.2934 0063232  74.0221 286.7943 14.81162792161463
Epoch: 2025-12-20T21:48Z
TLE epoch observation values (Epoch: 2025-12-20T21:48:12.760Z)
Latitude
-0.00007°
Longitude
0.51171°
Altitude
616.115 km
Speed
7.558 km/s
True Right ascension
03h 49m 10s
True Declination
0° 00' 00"
Sunlit
Object was in full shadow at epoch
Visualization orbit readout
Latitude
Unknown
Longitude
Unknown
Altitude
Unknown
Speed
Unknown
Apparent Right ascension
Unknown
Apparent Declination
Unknown
Sunlit
N/A
Visualization observer readout
Local Sidereal Time
13:57:31
Azimuth
Unknown
Elevation
Unknown
Doppler factor
Unknown
Orbital elements
Apogee altitude
666.997 km
Perigee altitude
578.462 km
Semi-major axis
7,000.866 km
Eccentricity
0.00632
Inclination
98.6288°
RAAN
57.2934°
Arg. of periapsis
74.0221°
True anomaly
286.09905°
Mean anomaly
286.7943°
Eccentric anomaly
286.44683°
Mean motion
3.70523 °/min
Orbital period
97.16 mins
BSTAR
0.0016081
Loading maneuver chart data...
Computing Atmospheric mass density...
Loading historical data...
Loading historical data...
Loading historical data...
Loading historical data...
Loading historical data...
Loading historical data...
Loading historical data...

Documentation

Showing up to 5 results
|